Showing default

QIANFAN-46, 62247

Orbit data source: Space-Track

QIANFAN-46, 62247 is a Chinese payload satellite in LEO that was launched on Thu, 05 Dec 2024 UTC via a CHANG ZHENG 6A launch vehicle from the Taiyaun Space Center, China (TSC). Payload-class satellites include a variety of spacecraft equipped with specific instruments for various scientific and technological missions. These include communications satellites like Starlink; space stations such as the ISS; scientific satellites like the Hubble; Earth observation satellites from companies like Planet Labs, Umbra, and HawkEye 360; GPS; miniature CubeSats for education and research; and military/defense satellites.

Loading next visibility...
Identifier
62247, 2024-232L
Orbit
LEO
Country
Flag of CNCN / PRC
Related business
Manufacturer
SECM
Mission
Operational Commercial Communications
Bus & Motor
QIANFAN, Unknown motor
Mass
267 kg wet, ~267 kg dry
Launch date (UTC)
2024-12-05 (10 months ago)
Launch vehicle
CHANG ZHENG 6A
Launch site
Taiyaun Space Center, China (TSC)
Object type
Payload
Rocket body
Debris
Shape & HBR
Box + 1 Pan, 5.0 m
Radar Cross Section
13.200 m², Large (>1 m²)

Expand to show TLE details & history
Last TLE update: 16 hours ago

TLE from 16 hours ago
0 QIANFAN-46
1 62247U 24232L   25287.93016257  .00000154  00000-0  21971-3 0  9994
2 62247  89.0024  47.2083 0014418  16.0652 344.0954 13.50977050 91273
Epoch: 2025-10-14T22:19Z
TLE epoch observation values (Epoch: 2025-10-14T22:19:26.046Z)
Latitude
0.00006°
Longitude
48.63825°
Altitude
1,061.292 km
Speed
7.326 km/s
True Right ascension
03h 08m 49s
True Declination
0° 00' 00"
Sunlit
Object was in full shadow at epoch
Visualization orbit readout
Latitude
Unknown
Longitude
Unknown
Altitude
Unknown
Speed
Unknown
Apparent Right ascension
Unknown
Apparent Declination
Unknown
Sunlit
N/A
Visualization observer readout
Local Sidereal Time
09:05:30
Azimuth
Unknown
Elevation
Unknown
Doppler factor
Unknown
Orbital elements
Apogee altitude
1,076.45 km
Perigee altitude
1,054.984 km
Semi-major axis
7,443.854 km
Eccentricity
0.00144
Inclination
89.0024°
RAAN
47.2083°
Arg. of periapsis
16.0652°
True anomaly
344.05005°
Mean anomaly
344.0954°
Eccentric anomaly
344.07273°
Mean motion
3.37945 °/min
Orbital period
106.53 mins
BSTAR
0.00021971
Loading maneuver chart data...
Computing Atmospheric mass density...
Loading historical data...
Loading historical data...
Loading historical data...
Loading historical data...
Loading historical data...
Loading historical data...
Loading historical data...

Documentation

Showing up to 5 results
|